| time (UTC) | temp F | wind direction | speed knots | gust knots | rain 1hr in | rain 24hr in | rain mn in | humidity % | barometer mb |
| 20260505213530 | 59 | 249 | 11.3 | 16.5 | 0.00 | 0.00 | 0.00 | 80 | 1009.7 |
| 20260505212025 | 60 | 180 | 1.7 | 7.8 | 0.00 | 0.00 | 0.00 | 81 | 1009.7 |
| 20260505210522 | 61 | 292 | 1.7 | 7.0 | 0.00 | 0.00 | 0.00 | 77 | 1009.6 |
| 20260505205020 | 61 | 200 | 4.3 | 8.7 | 0.00 | 0.00 | 0.00 | 77 | 1009.3 |
| 20260505203517 | 61 | 179 | 5.2 | 12.2 | 0.00 | 0.00 | 0.00 | 78 | 1009.6 |
| 20260505202018 | 60 | 57 | 1.7 | 10.4 | 0.00 | 0.00 | 0.00 | 81 | 1009.6 |
| 20260505200516 | 61 | 116 | 3.5 | 12.2 | 0.00 | 0.00 | 0.00 | 78 | 1009.3 |
| 20260505195012 | 62 | 217 | 13.9 | 13.9 | 0.00 | 0.00 | 0.00 | 76 | 1009.6 |
| 20260505193507 | 61 | 188 | 0.0 | 14.8 | 0.00 | 0.00 | 0.00 | 80 | 1009.6 |
| 20260505192006 | 62 | 135 | 0.0 | 13.0 | 0.00 | 0.00 | 0.00 | 79 | 1009.8 |
| 20260505190502 | 62 | 161 | 6.1 | 15.6 | 0.00 | 0.00 | 0.00 | 77 | 1010.0 |
| 20260505184957 | 62 | 164 | 11.3 | 11.3 | 0.00 | 0.00 | 0.00 | 79 | 1009.9 |
| 20260505183454 | 61 | 213 | 4.3 | 11.3 | 0.00 | 0.00 | 0.00 | 78 | 1010.0 |
| 20260505181949 | 64 | 287 | 2.6 | 9.6 | 0.00 | 0.00 | 0.00 | 76 | 1010.2 |
| 20260505180446 | 65 | 192 | 3.5 | 8.7 | 0.00 | 0.00 | 0.00 | 74 | 1009.9 |
| 20260505174941 | 64 | 274 | 1.7 | 9.6 | 0.00 | 0.00 | 0.00 | 74 | 1010.4 |
| 20260505173437 | 64 | 259 | 0.0 | 13.0 | 0.00 | 0.00 | 0.00 | 74 | 1010.6 |
| 20260505171937 | 66 | 133 | 4.3 | 7.8 | 0.00 | 0.00 | 0.00 | 72 | 1010.9 |
| 20260505170434 | 67 | 98 | 2.6 | 7.0 | 0.00 | 0.00 | 0.00 | 72 | 1010.7 |
| 20260505164933 | 68 | 145 | 0.0 | 2.6 | 0.00 | 0.00 | 0.00 | 72 | 1010.9 |
| 20260505163432 | 65 | 209 | 5.2 | 7.0 | 0.00 | 0.00 | 0.00 | 75 | 1011.1 |
| 20260505161929 | 64 | 219 | 7.8 | 9.6 | 0.00 | 0.00 | 0.00 | 74 | 1011.0 |
| 20260505160428 | 64 | 185 | 9.6 | 12.2 | 0.00 | 0.00 | 0.00 | 75 | 1011.4 |
| 20260505151919 | 64 | 226 | 5.2 | 13.0 | 0.00 | 0.00 | 0.00 | 76 | 1011.2 |
| 20260505150416 | 64 | 245 | 4.3 | 4.3 | 0.00 | 0.00 | 0.00 | 76 | 1010.9 |
| 20260505140403 | 61 | 143 | 2.6 | 4.3 | 0.00 | 0.00 | 0.00 | 81 | 1011.3 |
| 20260505124846 | 57 | 173 | 0.0 | 7.8 | 0.00 | 0.00 | 0.00 | 87 | 1011.6 |
| 20260505123341 | 56 | 184 | 3.5 | 4.3 | 0.00 | 0.00 | 0.00 | 88 | 1011.5 |
| 20260505121837 | 55 | 181 | 4.3 | 10.4 | 0.00 | 0.00 | 0.00 | 89 | 1011.3 |
| 20260505120332 | 55 | 184 | 3.5 | 5.2 | 0.00 | 0.00 | 0.00 | 89 | 1011.4 |
| 20260505114832 | 54 | 200 | 3.5 | 7.0 | 0.00 | 0.00 | 0.00 | 90 | 1011.2 |
| 20260505113327 | 54 | 108 | 0.0 | 2.6 | 0.00 | 0.00 | 0.00 | 91 | 1011.4 |
| 20260505111827 | 53 | 247 | 2.6 | 4.3 | 0.00 | 0.00 | 0.00 | 91 | 1011.2 |
| 20260505110322 | 53 | 160 | 0.0 | 7.0 | 0.00 | 0.00 | 0.00 | 93 | 1011.2 |
| 20260505101821 | 51 | 8 | 0.0 | 2.6 | 0.00 | 0.00 | 0.00 | 95 | 1010.9 |
| 20260505100315 | 50 | 204 | 3.5 | 3.5 | 0.00 | 0.00 | 0.00 | 95 | 1010.5 |
| 20260505094815 | 50 | 177 | 2.6 | 4.3 | 0.00 | 0.00 | 0.00 | 96 | 1010.7 |
| 20260505093312 | 50 | 147 | 1.7 | 5.2 | 0.00 | 0.00 | 0.00 | 96 | 1011.0 |
| 20260505091810 | 50 | 63 | 2.6 | 5.2 | 0.00 | 0.00 | 0.00 | 96 | 1010.8 |
| 20260505090309 | 50 | 22 | 0.0 | 4.3 | 0.00 | 0.00 | 0.00 | 96 | 1011.0 |
| 20260505084807 | 50 | 193 | 5.2 | 5.2 | 0.00 | 0.00 | 0.00 | 97 | 1011.0 |
| 20260505083306 | 50 | 103 | 0.9 | 4.3 | 0.00 | 0.00 | 0.00 | 97 | 1010.9 |
| 20260505081800 | 50 | 144 | 5.2 | 5.2 | 0.00 | 0.00 | 0.00 | 97 | 1011.0 |
| 20260505080256 | 49 | 341 | 0.0 | 4.3 | 0.00 | 0.00 | 0.00 | 97 | 1011.1 |
| 20260505074752 | 49 | 129 | 0.0 | 2.6 | 0.00 | 0.00 | 0.00 | 96 | 1011.1 |
| 20260505073250 | 49 | 140 | 0.0 | 2.6 | 0.00 | 0.00 | 0.00 | 96 | 1011.2 |
| 20260505071745 | 50 | 182 | 0.0 | 3.5 | 0.00 | 0.00 | 0.00 | 96 | 1011.0 |
| 20260505070241 | 50 | 217 | 3.5 | 3.5 | 0.00 | 0.00 | 0.00 | 96 | 1011.2 |
| 20260505064737 | 50 | 225 | 0.0 | 6.1 | 0.00 | 0.00 | 0.00 | 96 | 1011.1 |
| 20260505063234 | 50 | 261 | 1.7 | 4.3 | 0.00 | 0.00 | 0.00 | 97 | 1011.2 |
| 20260505061730 | 49 | 212 | 4.3 | 6.1 | 0.00 | 0.00 | 0.00 | 97 | 1011.4 |
| 20260505060229 | 49 | 234 | 2.6 | 2.6 | 0.00 | 0.00 | 0.00 | 97 | 1011.3 |
| 20260505054729 | 49 | 212 | 0.0 | 3.5 | 0.00 | 0.00 | 0.00 | 97 | 1011.5 |
| 20260505053227 | 49 | 180 | 2.6 | 4.3 | 0.00 | 0.00 | 0.00 | 97 | 1011.4 |
| 20260505051724 | 49 | 165 | 1.7 | 2.6 | 0.00 | 0.00 | 0.00 | 97 | 1011.4 |
| 20260505050224 | 49 | 225 | 3.5 | 4.3 | 0.00 | 0.00 | 0.00 | 96 | 1011.7 |
| 20260505041711 | 50 | 180 | 1.7 | 2.6 | 0.00 | 0.00 | 0.00 | 94 | 1011.9 |
| 20260505040209 | 50 | 227 | 2.6 | 3.5 | 0.00 | 0.00 | 0.00 | 94 | 1011.7 |
| 20260505034704 | 50 | 12 | 2.6 | 7.0 | 0.00 | 0.00 | 0.00 | 93 | 1011.6 |
| 20260505033201 | 49 | 109 | 0.0 | 4.3 | 0.00 | 0.00 | 0.00 | 93 | 1011.6 |
| 20260505031658 | 50 | 99 | 0.0 | 4.3 | 0.00 | 0.00 | 0.00 | 92 | 1011.7 |
| 20260505030158 | 50 | 184 | 1.7 | 3.5 | 0.00 | 0.00 | 0.00 | 91 | 1012.0 |
| 20260505024656 | 50 | 170 | 2.6 | 2.6 | 0.00 | 0.00 | 0.00 | 91 | 1012.1 |
| 20260505023154 | 50 | 239 | 1.7 | 2.6 | 0.00 | 0.00 | 0.00 | 90 | 1011.7 |
| 20260505021650 | 50 | 270 | 0.9 | 4.3 | 0.00 | 0.00 | 0.00 | 89 | 1012.2 |
| 20260505020150 | 51 | 197 | 3.5 | 4.3 | 0.00 | 0.00 | 0.00 | 87 | 1012.2 |
| 20260505014647 | 51 | 201 | 5.2 | 5.2 | 0.00 | 0.00 | 0.00 | 85 | 1012.1 |
| 20260505013144 | 52 | 247 | 4.3 | 10.4 | 0.00 | 0.00 | 0.00 | 84 | 1011.8 |
| 20260505011641 | 52 | 282 | 5.2 | 8.7 | 0.00 | 0.00 | 0.00 | 83 | 1011.5 |
| 20260505010136 | 52 | 283 | 3.5 | 9.6 | 0.00 | 0.00 | 0.00 | 83 | 1011.2 |
| 20260505004632 | 53 | 209 | 6.1 | 8.7 | 0.00 | 0.00 | 0.00 | 82 | 1010.9 |
| 20260505003129 | 54 | 188 | 3.5 | 14.8 | 0.00 | 0.00 | 0.00 | 78 | 1010.7 |
| 20260505001626 | 54 | 220 | 5.2 | 10.4 | 0.00 | 0.00 | 0.00 | 77 | 1010.5 |
| 20260505000124 | 55 | 192 | 1.7 | 11.3 | 0.00 | 0.00 | 0.00 | 75 | 1010.4 |
| 20260504234620 | 55 | 189 | 4.3 | 7.8 | 0.00 | 0.00 | 0.00 | 73 | 1010.1 |
| 20260504233120 | 56 | 227 | 6.1 | 9.6 | 0.00 | 0.00 | 0.00 | 70 | 1010.0 |
| 20260504231618 | 57 | 200 | 6.1 | 13.0 | 0.00 | 0.00 | 0.00 | 68 | 1009.7 |
| 20260504230115 | 57 | 218 | 2.6 | 8.7 | 0.00 | 0.00 | 0.00 | 66 | 1009.8 |
| 20260504224612 | 58 | 246 | 11.3 | 16.5 | 0.00 | 0.00 | 0.00 | 63 | 1009.7 |
| 20260504223107 | 59 | 90 | 0.0 | 6.1 | 0.00 | 0.00 | 0.00 | 64 | 1009.6 |
| 20260504221605 | 61 | 134 | 0.0 | 7.8 | 0.00 | 0.00 | 0.00 | 58 | 1009.3 |
| 20260504220101 | 62 | 177 | 4.3 | 7.8 | 0.00 | 0.00 | 0.00 | 56 | 1009.3 |
| 20260504214556 | 61 | 232 | 3.5 | 12.2 | 0.00 | 0.00 | 0.00 | 55 | 1009.3 |